Location: Góry Miechowskie
(50.3599°N, 20.1803°E)
Time: 23:00:11
(UTC+00:00)

Explorer 7 - Visible Passes

Search period start: 11 September 2024 00:00
Search period end: 21 September 2024 00:00
Orbit: 462 x 610 km, 50.3° (Epoch: 11 September)

Date Brightness Start Highest point End Pass type
(mag) Time Alt. Az. Time Alt. Az. Time Alt. Az.
11 Sep 8.0 02:38:31 17° SSW 02:40:29 28° SSE 02:43:39 10° E visible
12 Sep 7.6 02:29:03 24° SSW 02:30:26 33° SSE 02:33:44 10° E visible
13 Sep 7.3 02:19:30 33° S 02:20:20 38° SSE 02:23:44 10° E visible
14 Sep 7.0 02:09:52 43° S 02:10:12 44° SSE 02:13:42 10° E visible
15 Sep 6.9 02:00:11 51° SSE 02:00:11 51° SSE 02:03:35 10° E visible
15 Sep 6.5 03:35:44 10° W 03:39:24 89° NNW 03:43:02 10° E visible
16 Sep 7.1 01:50:26 50° ESE 01:50:26 50° ESE 01:53:26 10° E visible
16 Sep 6.5 03:25:47 11° W 03:29:14 89° N 03:32:52 10° E visible
17 Sep 7.5 01:40:39 42° E 01:40:39 42° E 01:43:14 10° E visible
17 Sep 6.4 03:16:00 15° W 03:19:02 90° N 03:22:40 10° E visible
18 Sep 8.0 01:30:51 33° E 01:30:51 33° E 01:32:59 10° E visible
18 Sep 6.4 03:06:12 19° W 03:08:46 88° SSW 03:12:25 10° E visible
19 Sep 8.5 01:21:01 25° E 01:21:01 25° E 01:22:42 10° E visible
19 Sep 6.4 02:56:22 24° W 02:58:29 84° S 03:02:07 10° E visible
20 Sep 9.0 01:11:12 19° E 01:11:12 19° E 01:12:21 10° E visible
20 Sep 6.4 02:46:33 32° W 02:48:08 80° S 02:51:46 10° ESE visible
